Location: *
(51.0333°S, 178.4667°E)
Time: 15:58:15
(UTC+00:00)

Resurs 01 Rocket - Pass Details

Date: 15 November 2019
Orbit: 634 x 645 km, 98.0° (Epoch: 11 December)

Event Time Altitude Azimuth Distance (km) Brightness Sun altitude
Rises 08:45:53 0° 158° (SSE) 3,003 5.4 -9.6°
Reaches altitude 10° 08:48:22 10° 147° (SSE) 2,085 4.4 -9.9°
Maximum altitude 08:52:24 31° 85° (E) 1,166 2.6 -10.3°
Enters shadow 08:55:40 14° 28° (NNE) 1,815 3.3 -10.7°
